User: anonymous   Login
Location: Gallinara
(44.0333°N, 8.2333°E)
Time: 13:30:13
(UTC+00:00)
Language:

Cosmos 1743 - Orbit

View from above orbital plane
View from above orbital plane
View from above satellite
View from above satellite

Ground track
Ground track

The orbit data is extracted from the following two-line orbital elements,

1 16719U 86034A   21206.57710966  .00000692  00000-0  34196-4 0  9991
2 16719  82.5537 322.0865 0013243 122.4956 248.8424 15.16114517922506
Epoch (UTC): 25 July 2021 13:51:02
Eccentricity: 0.0013243
inclination: 82.5537°
perigee height: 508 km
apogee height: 527 km
right ascension of ascending node: 322.0865°
argument of perigee: 122.4956°
revolutions per day: 15.16114517
mean anomaly at epoch: 248.8424°
orbit number at epoch: 92250

The dashed part of the orbit path shows where the satellite is in the earth's shadow,  

DLR